EN

Hourly Weather Tonbridge

Today, 13 April, Tuesday

Time Temperature Precipitation Wind Pressure Humidity
00:00 +2°C° 0 mm 1 mps 769 mmHg 79%
01:00 +1°C° 0 mm 1 mps 769 mmHg 79%
02:00 0°C° 0 mm 0 mps 769 mmHg 79%
03:00 0°C° 0 mm 0 mps 769 mmHg 79%
04:00 0°C° 0 mm 0 mps 769 mmHg 79%
05:00 +1°C° 0 mm 0 mps 770 mmHg 78%
06:00 +2°C° 0 mm 1 mps 770 mmHg 78%
07:00 +4°C° 0 mm 1 mps 770 mmHg 73%
08:00 +6°C° 0 mm 1 mps 770 mmHg 67%
09:00 +8°C° 0 mm 2 mps 770 mmHg 62%
10:00 +8°C° 0 mm 2 mps 770 mmHg 60%
11:00 +8°C° 0 mm 3 mps 770 mmHg 58%
12:00 +9°C° 0 mm 3 mps 770 mmHg 55%
13:00 +9°C° 0.2 mm 3 mps 769 mmHg 57%
14:00 +9°C° 0.2 mm 3 mps 769 mmHg 60%
15:00 +9°C° 0.2 mm 3 mps 769 mmHg 63%
16:00 +8°C° 0.2 mm 3 mps 769 mmHg 69%
17:00 +7°C° 0.2 mm 3 mps 769 mmHg 76%
18:00 +5°C° 0.2 mm 3 mps 769 mmHg 82%
19:00 +4°C° 0 mm 3 mps 769 mmHg 85%
20:00 +4°C° 0 mm 2 mps 769 mmHg 88%
21:00 +3°C° 0 mm 2 mps 769 mmHg 91%
22:00 +4°C° 0 mm 1 mps 769 mmHg 90%
23:00 +4°C° 0 mm 1 mps 769 mmHg 90%

Tomorrow, 14 April, Wednesday

Time Temperature Precipitation Wind Pressure Humidity
00:00 +3°C° 0 mm 1 mps 769 mmHg 90%
01:00 +3°C° 0 mm 1 mps 769 mmHg 90%
02:00 +3°C° 0 mm 1 mps 769 mmHg 89%
03:00 +3°C° 0 mm 1 mps 769 mmHg 89%
04:00 +3°C° 0 mm 1 mps 769 mmHg 88%
05:00 +2°C° 0 mm 2 mps 769 mmHg 87%
06:00 +2°C° 0 mm 2 mps 769 mmHg 85%
07:00 +3°C° 0 mm 2 mps 769 mmHg 82%
08:00 +3°C° 0 mm 3 mps 770 mmHg 79%
09:00 +4°C° 0 mm 3 mps 770 mmHg 76%
10:00 +5°C° 0 mm 3 mps 770 mmHg 70%
11:00 +7°C° 0 mm 3 mps 770 mmHg 63%
12:00 +8°C° 0 mm 3 mps 770 mmHg 57%
13:00 +7°C° 0 mm 4 mps 769 mmHg 55%
14:00 +8°C° 0 mm 4 mps 769 mmHg 52%
15:00 +8°C° 0 mm 4 mps 769 mmHg 50%
16:00 +7°C° 0 mm 4 mps 769 mmHg 56%
17:00 +7°C° 0 mm 3 mps 769 mmHg 62%
18:00 +5°C° 0 mm 3 mps 769 mmHg 68%
19:00 +3°C° 0 mm 3 mps 769 mmHg 73%
20:00 +3°C° 0 mm 2 mps 770 mmHg 78%
21:00 +2°C° 0 mm 2 mps 770 mmHg 84%
22:00 -1°C° 0 mm 2 mps 770 mmHg 91%
23:00 -1°C° 0 mm 2 mps 770 mmHg 90%

Day after tomorrow, 15 April, Thursday

Time Temperature Precipitation Wind Pressure Humidity
00:00 -1°C° 0 mm 2 mps 770 mmHg 89%
01:00 -1°C° 0 mm 2 mps 770 mmHg 90%
02:00 -1°C° 0 mm 2 mps 770 mmHg 91%
03:00 -1°C° 0 mm 2 mps 770 mmHg 93%
04:00 -1°C° 0 mm 2 mps 770 mmHg 91%
05:00 -1°C° 0 mm 2 mps 770 mmHg 91%
06:00 -1°C° 0 mm 3 mps 770 mmHg 90%
07:00 0°C° 0 mm 4 mps 770 mmHg 82%
08:00 +3°C° 0 mm 4 mps 770 mmHg 74%
09:00 +5°C° 0 mm 5 mps 769 mmHg 65%
10:00 +1°C° 0.1 mm 4 mps 769 mmHg 80%
11:00 +5°C° 0.1 mm 5 mps 769 mmHg 68%
12:00 +8°C° 0.1 mm 6 mps 769 mmHg 56%
13:00 +6°C° 0 mm 7 mps 768 mmHg 55%
14:00 +6°C° 0 mm 7 mps 768 mmHg 55%
15:00 +6°C° 0 mm 7 mps 768 mmHg 54%
16:00 +5°C° 0 mm 7 mps 768 mmHg 59%
17:00 +4°C° 0 mm 6 mps 768 mmHg 64%
18:00 +3°C° 0 mm 5 mps 768 mmHg 69%
19:00 +2°C° 0 mm 5 mps 768 mmHg 73%
20:00 +1°C° 0 mm 4 mps 769 mmHg 78%
21:00 +1°C° 0 mm 4 mps 769 mmHg 83%
22:00 0°C° 0 mm 4 mps 769 mmHg 85%
23:00 +1°C° 0 mm 3 mps 769 mmHg 87%

16 April, Friday

Time Temperature Precipitation Wind Pressure Humidity
00:00 +1°C° 0 mm 3 mps 769 mmHg 90%
01:00 0°C° 0 mm 3 mps 769 mmHg 90%
02:00 0°C° 0 mm 3 mps 769 mmHg 91%
03:00 0°C° 0 mm 3 mps 768 mmHg 91%
04:00 0°C° 0 mm 3 mps 769 mmHg 90%
05:00 0°C° 0 mm 3 mps 769 mmHg 89%
06:00 +1°C° 0 mm 3 mps 769 mmHg 88%
07:00 +2°C° 0 mm 3 mps 769 mmHg 80%
08:00 +4°C° 0 mm 4 mps 769 mmHg 72%
09:00 +6°C° 0 mm 5 mps 769 mmHg 64%
10:00 +7°C° 0 mm 5 mps 769 mmHg 60%
11:00 +8°C° 0 mm 5 mps 768 mmHg 56%
12:00 +9°C° 0 mm 6 mps 768 mmHg 53%
13:00 +9°C° 0 mm 6 mps 768 mmHg 54%
14:00 +9°C° 0 mm 6 mps 768 mmHg 54%
15:00 +9°C° 0 mm 6 mps 767 mmHg 55%
16:00 +8°C° 0 mm 5 mps 767 mmHg 61%
17:00 +7°C° 0 mm 5 mps 767 mmHg 66%
18:00 +6°C° 0 mm 5 mps 767 mmHg 71%
19:00 +4°C° 0 mm 4 mps 768 mmHg 76%
20:00 +3°C° 0 mm 4 mps 768 mmHg 80%
21:00 +2°C° 0 mm 3 mps 768 mmHg 85%
22:00 +2°C° 0 mm 3 mps 768 mmHg 86%
23:00 +1°C° 0 mm 3 mps 767 mmHg 88%

17 April, Saturday

Time Temperature Precipitation Wind Pressure Humidity
00:00 +1°C° 0 mm 3 mps 767 mmHg 90%
01:00 +1°C° 0 mm 3 mps 767 mmHg 91%
02:00 0°C° 0 mm 3 mps 767 mmHg 91%
03:00 0°C° 0 mm 3 mps 767 mmHg 92%
04:00 0°C° 0 mm 3 mps 767 mmHg 91%
05:00 +1°C° 0 mm 3 mps 767 mmHg 91%
06:00 +2°C° 0 mm 2 mps 767 mmHg 90%
07:00 +3°C° 0 mm 3 mps 767 mmHg 81%
08:00 +5°C° 0 mm 3 mps 767 mmHg 73%
09:00 +7°C° 0 mm 4 mps 767 mmHg 64%
10:00 +8°C° 0 mm 4 mps 766 mmHg 60%
11:00 +10°C° 0 mm 4 mps 766 mmHg 56%
12:00 +11°C° 0 mm 4 mps 766 mmHg 52%
13:00 +11°C° 0 mm 4 mps 765 mmHg 52%
14:00 +11°C° 0 mm 4 mps 765 mmHg 51%
15:00 +11°C° 0 mm 3 mps 765 mmHg 51%
16:00 +10°C° 0 mm 3 mps 765 mmHg 57%
17:00 +8°C° 0 mm 3 mps 765 mmHg 64%
18:00 +7°C° 0 mm 2 mps 765 mmHg 71%
19:00 +6°C° 0 mm 2 mps 765 mmHg 74%
20:00 +5°C° 0 mm 2 mps 765 mmHg 77%
21:00 +3°C° 0 mm 2 mps 765 mmHg 81%
22:00 +4°C° 0 mm 1 mps 765 mmHg 82%
23:00 +3°C° 0 mm 1 mps 765 mmHg 83%

18 April, Sunday

Time Temperature Precipitation Wind Pressure Humidity
00:00 +2°C° 0 mm 0 mps 765 mmHg 84%
01:00 +2°C° 0 mm 0 mps 765 mmHg 84%
02:00 +2°C° 0 mm 0 mps 764 mmHg 84%
03:00 +2°C° 0 mm 0 mps 764 mmHg 83%
04:00 +2°C° 0 mm 0 mps 764 mmHg 81%
05:00 +3°C° 0 mm 0 mps 764 mmHg 79%
06:00 +4°C° 0 mm 1 mps 764 mmHg 77%
07:00 +5°C° 0 mm 0 mps 764 mmHg 72%
08:00 +7°C° 0 mm 0 mps 764 mmHg 66%
09:00 +9°C° 0 mm 0 mps 764 mmHg 60%
10:00 +11°C° 0 mm 1 mps 764 mmHg 57%
11:00 +12°C° 0 mm 1 mps 764 mmHg 55%
12:00 +13°C° 0 mm 1 mps 763 mmHg 52%
13:00 +13°C° 0 mm 2 mps 763 mmHg 54%
14:00 +13°C° 0 mm 2 mps 763 mmHg 55%
15:00 +13°C° 0 mm 2 mps 763 mmHg 56%
16:00 +12°C° 0 mm 2 mps 763 mmHg 62%
17:00 +10°C° 0 mm 2 mps 763 mmHg 68%
18:00 +9°C° 0 mm 2 mps 763 mmHg 74%
19:00 +8°C° 0 mm 2 mps 763 mmHg 76%
20:00 +7°C° 0 mm 1 mps 763 mmHg 79%
21:00 +6°C° 0 mm 1 mps 763 mmHg 81%
22:00 +5°C° 0 mm 1 mps 763 mmHg 81%
23:00 +5°C° 0 mm 1 mps 763 mmHg 81%
Show more

We Need Your Consent

Meteoprog and our Service Providers may store and access personal data such as cookies, device identifiers or other similar technologies on your device and process such data to personalise content and ads, as well as provide social media features and to analyse the traffic.

  • Store and/or access information on your device

    Cookies, device identifiers or other information can be stored or accessed on your device for the purposes indicated above.

  • Personalised ads and content, ad and content measurement, audience insights, and products development

    Ads and content can be personalised based on a profile. More data can be added to better personalise ads and content. Ad and content performance can be measured. Insights about the audience who saw the ads and content can be derived. Such data can be used to develop or improve user’s experience, systems and software.

By clicking ‘I Agree’ you will allow the use of indicated cookies, device identifiers, web beacons or other similar technologies. Your settings can be changed in the browser on your device.

For certain purposes, legitimate interests may be relied on, rather than consent. You can read more about this in our Privacy and Cookie Policy.